CYQB

Quebec

Airport
ICAO code
CYQB
Summary
ICAO Region
NAM
ICAO Territory
Location

Quebec City, Quebec,

Coordinates
46° 47' 28" N , 71° 23' 36" W
KCC
Metar
CYQB 222300Z 24006KT 30SM FEW050 FEW083 SCT200 23/14 A2999 RMK CU1AC1CI1 SLP158 DENSITY ALT 1200FT

Description

Québec City Jean Lesage International Airport, also known as Jean Lesage International Airport is located 6 nm west southwest of Quebec City, Quebec, Canada.

Climatology

Humid Continental climate (Köppen climate classification Dfb) - Variable weather patterns and a large seasonal temperature variance. Summers are often warm and humid with frequent thunderstorms and winters can be very cold with frequent snowfall and persistent snow cover.

Runways

Designator Length Width Surface Rops
12/30 1737 46 ASP Yes/Yes
6/24 2743 46 ASP Yes/Yes

Airport map

Aerial View

SKYbrary Partners:

Safety knowledge contributed by: